Regional Weather Roundup
Issued by NWS

Home | Current Version | Previous Version | Graphics & Text | Print | Product List | Glossary On
Versions: 1 2 3 4 5 6 7 8 9 10 11 12 13 14 15 16 17 18 19 20 21 22 23 24 25 26 27 28 29 30 31 32 33 34 35 36 37 38 39 40 41 42 43 44 45 46 47 48 49 50
555
ASUS44 KJAN 170810
RWRMS

MISSISSIPPI HOURLY WEATHER ROUNDUP
NATIONAL WEATHER SERVICE JACKSON MS
300 AM CDT FRI APR 17 2015

NOTE: "FAIR: INDICATES FEW OR NO CLOUDS BELOW 12,000 FEET WITH NO
SIGNIFICANT WEATHER AND/OR OBSTRUCTIONS TO VISIBILITY.

MSZ001>002-007>008-010>013-018>021-025>028-034>036-170900-
NORTHWEST MISSISSIPPI

CITY           SKY/WX    TMP DP  RH WIND       PRES   REMARKS
CLARKSDALE     CLOUDY    68  68 100 CALM      30.03R
CLEVELAND      CLOUDY    68  68 100 CALM      30.01S
GREENWOOD      CLOUDY    68  64  87 SE3       30.02R
GREENVILLE     CLOUDY    68  65  90 CALM      30.00F
OLIVE BRANCH   MOCLDY    63 N/A N/A SE6       30.05R
OXFORD         CLOUDY    64  63  94 SE6       30.06S
TUNICA         CLOUDY    66  64  94 SE6       30.03S
$$

MSZ003>006-009-014>017-022>024-029>033-037>039-170900-
NORTHEAST MISSISSIPPI

CITY           SKY/WX    TMP DP  RH WIND       PRES   REMARKS
COLUMBUS AFB   NOT AVBL
CORINTH        CLOUDY    64  61  88 SE8       30.06S
GOLDN TRIANGLE CLOUDY    64  63  94 E6        30.05S
STARKVILLE     LGT RAIN  64  63  94 SE5       30.05R
TUPELO         CLOUDY    65  62  90 SE7       30.06S
$$

MSZ040-058-170900-
CENTRAL MISSISSIPPI

CITY           SKY/WX    TMP DP  RH WIND       PRES   REMARKS
JACKSON INTL   CLOUDY    64  63  96 CALM      30.01F
JACKSON HAWKNS CLOUDY    65  63  93 SE3       30.02F
MERIDIAN KEY   CLOUDY    66  64  93 S3        30.03F
MERIDIAN NAS   CLOUDY    66  64  93 CALM      30.04S
RAYMOND        FAIR      64  61  88 CALM      30.01F
VICKSBURG      CLOUDY    66  64  93 SW3       30.02S
$$

MSZ059>079-170900-
SOUTH MISSISSIPPI

CITY           SKY/WX    TMP DP  RH WIND       PRES   REMARKS
BROOKHAVEN     CLOUDY    66  66 100 CALM      30.03F
HATTIESBURG    CLOUDY    68  67  96 CALM      30.02F
MCCOMB         CLOUDY    67  66  97 CALM      30.02F
NATCHEZ        CLOUDY    64  63  94 S5        30.02F
PINE BELT      CLOUDY    66 N/A N/A CALM      30.02S
$$

MSZ080>082-170900-
COASTAL MISSISSIPPI

CITY           SKY/WX    TMP DP  RH WIND       PRES   REMARKS
BILOXI         LGT RAIN  72  72 100 SE17G24   30.00F
PASCAGOULA     LGT RAIN  69  68  96 SE9       30.02F
GULFPORT       RAIN      72  70  93 SE22      29.96F FOG
$$



USA.gov is the U.S. government's official web portal to all federal, state and local government web resources and services.